Location: Boursonne
(49.2024°N, 3.0468°E)
Time: 08:09:54
(UTC+00:00)

Cosmos 2322 - Pass Details

Date: 03 March 2021
Orbit: 841 x 853 km, 71.0° (Epoch: 11 April)

Event Time Altitude Azimuth Distance (km) Brightness Sun altitude
Rises 19:43:46 0° 201° (SSW) 3,410 6.9 -21.8°
Reaches altitude 10° 19:46:13 10° 200° (SSW) 2,478 6.2 -22.1°
Maximum altitude 19:51:54 77° 115° (ESE) 881 3.6 -23.0°
Drops below altitude 10° 19:57:37 10° 31° (NNE) 2,492 6.0 -23.9°
Sets 20:00:05 0° 30° (NNE) 3,430 6.8 -24.3°
